Time,TemperatureF,DewpointF,PressureIn,WindDirection,WindDirectionDegrees,WindSpeedMPH,WindSpeedGustMPH,Humidity,HourlyPrecipIn,Conditions,Clouds,dailyrainin,SoftwareType,DateUTC
2013-04-10 00:02:00,49.0,47.0,-100.00,NE,55,9.0,14.0,95,0.00,,,-99.99,,2013-04-10 05:02:00,
2013-04-10 00:13:00,48.0,47.0,-100.00,ENE,75,7.0,12.0,95,0.00,,,-99.99,,2013-04-10 05:13:00,
2013-04-10 00:22:00,48.0,47.0,-100.00,NE,55,7.0,11.0,95,0.00,,,-99.99,,2013-04-10 05:22:00,
2013-04-10 00:33:00,48.0,47.0,-100.00,NE,55,7.0,14.0,95,0.00,,,-99.99,,2013-04-10 05:33:00,
2013-04-10 00:42:00,48.0,47.0,-100.00,NE,55,7.0,14.0,95,0.00,,,-99.99,,2013-04-10 05:42:00,
2013-04-10 00:52:00,47.0,46.0,-100.00,NE,50,11.0,17.0,95,0.10,,,-99.99,,2013-04-10 05:52:00,
2013-04-10 01:03:00,47.0,46.0,-100.00,NE,50,11.0,17.0,95,0.10,,,-99.99,,2013-04-10 06:03:00,
2013-04-10 01:12:00,48.0,46.0,-100.00,NE,55,9.0,17.0,95,0.04,,,-99.99,,2013-04-10 06:12:00,
2013-04-10 01:22:00,47.0,46.0,-100.00,NE,50,9.0,14.0,95,0.13,,,-99.99,,2013-04-10 06:22:00,
2013-04-10 01:32:00,47.0,46.0,-100.00,NNE,15,7.0,14.0,95,0.88,,,-99.99,,2013-04-10 06:32:00,
2013-04-10 01:42:00,47.0,46.0,-100.00,NNE,15,7.0,14.0,95,0.88,,,-99.99,,2013-04-10 06:42:00,
2013-04-10 01:52:00,47.0,45.0,-100.00,NNE,20,12.0,22.0,95,4.83,,,-99.99,,2013-04-10 06:52:00,
2013-04-10 02:02:00,47.0,45.0,-100.00,NNE,20,12.0,22.0,95,4.83,,,-99.99,,2013-04-10 07:02:00,
2013-04-10 02:12:00,46.0,45.0,-100.00,North,10,12.0,24.0,95,1.03,,,-99.99,,2013-04-10 07:12:00,
2013-04-10 02:22:00,45.0,44.0,-100.00,NNE,30,6.0,26.0,95,6.31,,,-99.99,,2013-04-10 07:22:00,
2013-04-10 02:32:00,45.0,43.0,-100.00,NE,40,14.0,24.0,95,1.23,,,-99.99,,2013-04-10 07:32:00,
2013-04-10 02:42:00,45.0,43.0,-100.00,NE,40,14.0,24.0,95,1.23,,,-99.99,,2013-04-10 07:42:00,
2013-04-10 02:52:00,44.0,42.0,-100.00,ENE,60,16.0,32.0,95,1.13,,,-99.99,,2013-04-10 07:52:00,
2013-04-10 03:02:00,44.0,42.0,-100.00,ENE,60,16.0,32.0,95,1.13,,,-99.99,,2013-04-10 08:02:00,
2013-04-10 03:12:00,43.0,42.0,-100.00,ENE,65,15.0,21.0,95,1.25,,,-99.99,,2013-04-10 08:12:00,
2013-04-10 03:22:00,42.0,41.0,-100.00,ENE,60,16.0,30.0,95,0.85,,,-99.99,,2013-04-10 08:22:00,
2013-04-10 03:32:00,42.0,41.0,-100.00,NE,50,11.0,24.0,95,0.64,,,-99.99,,2013-04-10 08:32:00,
2013-04-10 03:42:00,42.0,41.0,-100.00,NE,50,11.0,24.0,95,0.64,,,-99.99,,2013-04-10 08:42:00,
2013-04-10 03:52:00,43.0,41.0,-100.00,North,5,3.0,28.0,95,1.63,,,-99.99,,2013-04-10 08:52:00,
2013-04-10 04:02:00,43.0,41.0,-100.00,North,5,3.0,28.0,95,1.63,,,-99.99,,2013-04-10 09:02:00,
2013-04-10 04:12:00,43.0,41.0,-100.00,NE,35,17.0,24.0,95,0.67,,,-99.99,,2013-04-10 09:12:00,
2013-04-10 04:22:00,42.0,40.0,-100.00,NE,40,6.0,22.0,95,0.48,,,-99.99,,2013-04-10 09:22:00,
2013-04-10 04:32:00,41.0,40.0,-100.00,ENE,60,13.0,20.0,95,0.91,,,-99.99,,2013-04-10 09:32:00,
2013-04-10 04:43:00,41.0,40.0,-100.00,ENE,60,13.0,20.0,95,0.91,,,-99.99,,2013-04-10 09:43:00,
2013-04-10 04:52:00,42.0,40.0,-100.00,ESE,105,11.0,16.0,95,0.06,,,-99.99,,2013-04-10 09:52:00,
2013-04-10 05:03:00,42.0,40.0,-100.00,ESE,105,11.0,16.0,95,0.06,,,-99.99,,2013-04-10 10:03:00,
2013-04-10 05:12:00,41.0,40.0,-100.00,East,80,10.0,17.0,95,0.07,,,-99.99,,2013-04-10 10:12:00,
2013-04-10 05:23:00,41.0,40.0,-100.00,East,100,11.0,16.0,95,0.03,,,-99.99,,2013-04-10 10:23:00,
2013-04-10 05:33:00,41.0,40.0,-100.00,ESE,120,10.0,16.0,95,0.00,,,-99.99,,2013-04-10 10:33:00,
2013-04-10 05:42:00,41.0,40.0,-100.00,ESE,120,10.0,16.0,95,0.00,,,-99.99,,2013-04-10 10:42:00,
2013-04-10 05:52:00,41.0,40.0,-100.00,East,95,14.0,16.0,95,0.00,,,-99.99,,2013-04-10 10:52:00,
2013-04-10 06:02:00,41.0,40.0,-100.00,East,95,14.0,16.0,95,0.00,,,-99.99,,2013-04-10 11:02:00,
2013-04-10 06:12:00,41.0,40.0,-100.00,ESE,120,13.0,20.0,95,0.00,,,-99.99,,2013-04-10 11:12:00,
2013-04-10 06:22:00,41.0,40.0,-100.00,East,100,12.0,20.0,95,0.00,,,-99.99,,2013-04-10 11:22:00,
2013-04-10 06:32:00,41.0,40.0,-100.00,East,95,11.0,17.0,95,0.00,,,-99.99,,2013-04-10 11:32:00,
2013-04-10 06:42:00,41.0,40.0,-100.00,East,95,11.0,17.0,95,0.00,,,-99.99,,2013-04-10 11:42:00,
2013-04-10 06:52:00,41.0,40.0,-100.00,ESE,120,16.0,20.0,95,0.00,,,-99.99,,2013-04-10 11:52:00,
2013-04-10 07:03:00,41.0,40.0,-100.00,ESE,120,16.0,20.0,95,0.00,,,-99.99,,2013-04-10 12:03:00,
2013-04-10 07:12:00,41.0,40.0,-100.00,SE,135,6.0,19.0,95,0.06,,,-99.99,,2013-04-10 12:12:00,
2013-04-10 07:22:00,42.0,40.0,-100.00,SSW,195,9.0,11.0,95,0.00,,,-99.99,,2013-04-10 12:22:00,
2013-04-10 07:33:00,43.0,42.0,-100.00,WSW,245,5.0,17.0,95,0.62,,,-99.99,,2013-04-10 12:33:00,
2013-04-10 07:42:00,43.0,42.0,-100.00,WSW,245,5.0,17.0,95,0.62,,,-99.99,,2013-04-10 12:42:00,
2013-04-10 07:52:00,42.0,41.0,-100.00,NNE,30,11.0,15.0,95,1.63,,,-99.99,,2013-04-10 12:52:00,
2013-04-10 08:02:00,42.0,41.0,-100.00,NNE,30,11.0,15.0,95,1.63,,,-99.99,,2013-04-10 13:02:00,
2013-04-10 08:12:00,41.0,40.0,-100.00,East,85,14.0,21.0,95,1.25,,,-99.99,,2013-04-10 13:12:00,
2013-04-10 08:23:00,41.0,40.0,-100.00,East,90,10.0,19.0,95,0.07,,,-99.99,,2013-04-10 13:23:00,
2013-04-10 08:32:00,42.0,40.0,-100.00,East,90,10.0,14.0,95,0.00,,,-99.99,,2013-04-10 13:32:00,
2013-04-10 08:42:00,42.0,40.0,-100.00,East,90,10.0,14.0,95,0.00,,,-99.99,,2013-04-10 13:42:00,
2013-04-10 08:52:00,42.0,41.0,-100.00,ESE,105,6.0,9.0,95,0.00,,,-99.99,,2013-04-10 13:52:00,
2013-04-10 09:02:00,42.0,41.0,-100.00,ESE,105,6.0,9.0,95,0.00,,,-99.99,,2013-04-10 14:02:00,
2013-04-10 09:12:00,43.0,42.0,-100.00,East,100,11.0,13.0,95,0.00,,,-99.99,,2013-04-10 14:12:00,
2013-04-10 09:22:00,44.0,42.0,-100.00,SE,145,8.0,13.0,95,0.00,,,-99.99,,2013-04-10 14:22:00,
2013-04-10 09:32:00,44.0,42.0,-100.00,SE,135,6.0,11.0,95,0.00,,,-99.99,,2013-04-10 14:32:00,
2013-04-10 09:42:00,44.0,42.0,-100.00,SE,135,6.0,11.0,95,0.00,,,-99.99,,2013-04-10 14:42:00,
2013-04-10 09:52:00,44.0,43.0,-100.00,South,190,1.0,6.0,95,0.00,,,-99.99,,2013-04-10 14:52:00,
2013-04-10 10:02:00,44.0,43.0,-100.00,South,190,1.0,6.0,95,0.00,,,-99.99,,2013-04-10 15:02:00,
2013-04-10 10:12:00,44.0,43.0,-100.00,WNW,290,2.0,3.0,95,0.00,,,-99.99,,2013-04-10 15:12:00,
2013-04-10 10:22:00,44.0,43.0,-100.00,NNW,345,4.0,7.0,95,0.00,,,-99.99,,2013-04-10 15:22:00,
2013-04-10 10:32:00,44.0,42.0,-100.00,NE,40,4.0,9.0,95,0.00,,,-99.99,,2013-04-10 15:32:00,
2013-04-10 10:42:00,44.0,42.0,-100.00,NE,40,4.0,9.0,95,0.00,,,-99.99,,2013-04-10 15:42:00,
2013-04-10 10:52:00,44.0,43.0,-100.00,NE,50,8.0,12.0,95,0.00,,,-99.99,,2013-04-10 15:52:00,
2013-04-10 11:03:00,44.0,43.0,-100.00,NE,50,8.0,12.0,95,0.00,,,-99.99,,2013-04-10 16:03:00,
2013-04-10 11:13:00,44.0,42.0,-100.00,East,100,4.0,11.0,95,0.00,,,-99.99,,2013-04-10 16:13:00,
2013-04-10 11:23:00,44.0,43.0,-100.00,ENE,70,2.0,5.0,95,0.00,,,-99.99,,2013-04-10 16:23:00,
2013-04-10 11:33:00,44.0,42.0,-100.00,East,100,6.0,10.0,95,0.06,,,-99.99,,2013-04-10 16:33:00,
2013-04-10 11:43:00,44.0,42.0,-100.00,East,100,6.0,10.0,95,0.06,,,-99.99,,2013-04-10 16:43:00,
2013-04-10 11:52:00,44.0,43.0,-100.00,SE,125,3.0,5.0,95,0.00,,,-99.99,,2013-04-10 16:52:00,
2013-04-10 12:02:00,44.0,43.0,-100.00,SE,125,3.0,5.0,95,0.00,,,-99.99,,2013-04-10 17:02:00,
2013-04-10 12:12:00,44.0,43.0,-100.00,SSE,165,2.0,4.0,95,0.00,,,-99.99,,2013-04-10 17:12:00,
2013-04-10 12:22:00,44.0,43.0,-100.00,SE,125,6.0,7.0,95,0.07,,,-99.99,,2013-04-10 17:22:00,
2013-04-10 12:33:00,43.0,42.0,-100.00,ENE,65,7.0,9.0,95,0.20,,,-99.99,,2013-04-10 17:33:00,
2013-04-10 12:42:00,43.0,42.0,-100.00,ENE,65,7.0,9.0,95,0.20,,,-99.99,,2013-04-10 17:42:00,
2013-04-10 12:52:00,43.0,42.0,-100.00,NE,55,7.0,10.0,95,0.24,,,-99.99,,2013-04-10 17:52:00,
2013-04-10 13:03:00,43.0,42.0,-100.00,NE,55,7.0,10.0,95,0.24,,,-99.99,,2013-04-10 18:03:00,
2013-04-10 13:12:00,43.0,42.0,-100.00,ENE,75,7.0,11.0,95,0.16,,,-99.99,,2013-04-10 18:12:00,
2013-04-10 13:22:00,43.0,41.0,-100.00,ENE,65,6.0,11.0,95,0.33,,,-99.99,,2013-04-10 18:22:00,
2013-04-10 13:33:00,42.0,41.0,-100.00,East,90,6.0,8.0,95,0.27,,,-99.99,,2013-04-10 18:33:00,
2013-04-10 13:42:00,42.0,41.0,-100.00,East,90,6.0,8.0,95,0.27,,,-99.99,,2013-04-10 18:42:00,
2013-04-10 13:52:00,42.0,41.0,-100.00,East,90,7.0,11.0,95,0.25,,,-99.99,,2013-04-10 18:52:00,
2013-04-10 14:03:00,42.0,41.0,-100.00,East,90,7.0,11.0,95,0.25,,,-99.99,,2013-04-10 19:03:00,
2013-04-10 14:12:00,42.0,40.0,-100.00,East,80,11.0,16.0,95,0.20,,,-99.99,,2013-04-10 19:12:00,
2013-04-10 14:22:00,42.0,41.0,-100.00,ENE,75,12.0,17.0,95,0.16,,,-99.99,,2013-04-10 19:22:00,
2013-04-10 14:33:00,42.0,40.0,-100.00,East,80,10.0,17.0,95,0.08,,,-99.99,,2013-04-10 19:33:00,
2013-04-10 14:42:00,42.0,40.0,-100.00,East,80,10.0,17.0,95,0.08,,,-99.99,,2013-04-10 19:42:00,
2013-04-10 14:52:00,42.0,40.0,-100.00,ENE,75,7.0,14.0,95,0.27,,,-99.99,,2013-04-10 19:52:00,
2013-04-10 15:03:00,42.0,40.0,-100.00,ENE,75,7.0,14.0,95,0.27,,,-99.99,,2013-04-10 20:03:00,
2013-04-10 15:12:00,42.0,40.0,-100.00,ENE,75,9.0,14.0,95,0.23,,,-99.99,,2013-04-10 20:12:00,
2013-04-10 15:23:00,41.0,40.0,-100.00,ENE,60,16.0,20.0,95,0.11,,,-99.99,,2013-04-10 20:23:00,
2013-04-10 15:33:00,42.0,40.0,-100.00,East,95,9.0,15.0,95,0.00,,,-99.99,,2013-04-10 20:33:00,
2013-04-10 15:42:00,42.0,40.0,-100.00,East,95,9.0,15.0,95,0.00,,,-99.99,,2013-04-10 20:42:00,
2013-04-10 15:52:00,42.0,41.0,-100.00,East,100,11.0,19.0,95,0.00,,,-99.99,,2013-04-10 20:52:00,
2013-04-10 16:02:00,42.0,41.0,-100.00,East,100,11.0,19.0,95,0.00,,,-99.99,,2013-04-10 21:02:00,
2013-04-10 16:12:00,43.0,41.0,-100.00,ESE,110,11.0,16.0,95,0.00,,,-99.99,,2013-04-10 21:12:00,
2013-04-10 16:22:00,43.0,42.0,-100.00,SE,125,7.0,14.0,95,0.00,,,-99.99,,2013-04-10 21:22:00,
2013-04-10 16:33:00,43.0,42.0,-100.00,ESE,120,7.0,11.0,95,0.00,,,-99.99,,2013-04-10 21:33:00,
2013-04-10 16:42:00,43.0,42.0,-100.00,ESE,120,7.0,11.0,95,0.00,,,-99.99,,2013-04-10 21:42:00,
2013-04-10 16:53:00,42.0,41.0,-100.00,ENE,60,5.0,6.0,95,0.00,,,-99.99,,2013-04-10 21:53:00,
2013-04-10 17:03:00,42.0,41.0,-100.00,ENE,60,5.0,6.0,95,0.00,,,-99.99,,2013-04-10 22:03:00,
2013-04-10 17:12:00,42.0,41.0,-100.00,NE,35,7.0,10.0,95,0.17,,,-99.99,,2013-04-10 22:12:00,
2013-04-10 17:22:00,42.0,41.0,-100.00,North,10,8.0,12.0,95,0.35,,,-99.99,,2013-04-10 22:22:00,
2013-04-10 17:33:00,42.0,41.0,-100.00,North,10,10.0,13.0,95,0.55,,,-99.99,,2013-04-10 22:33:00,
2013-04-10 17:42:00,42.0,41.0,-100.00,North,10,10.0,13.0,95,0.55,,,-99.99,,2013-04-10 22:42:00,
2013-04-10 17:52:00,41.0,40.0,-100.00,NE,35,13.0,17.0,95,0.99,,,-99.99,,2013-04-10 22:52:00,
2013-04-10 18:02:00,41.0,40.0,-100.00,NE,35,13.0,17.0,95,0.99,,,-99.99,,2013-04-10 23:02:00,
2013-04-10 18:12:00,41.0,40.0,-100.00,NE,50,12.0,19.0,95,0.30,,,-99.99,,2013-04-10 23:12:00,
2013-04-10 18:22:00,41.0,39.0,-100.00,ENE,60,9.0,17.0,95,0.17,,,-99.99,,2013-04-10 23:22:00,
2013-04-10 18:33:00,41.0,39.0,-100.00,ENE,70,12.0,17.0,95,0.00,,,-99.99,,2013-04-10 23:33:00,
2013-04-10 18:42:00,41.0,39.0,-100.00,ENE,70,12.0,17.0,95,0.00,,,-99.99,,2013-04-10 23:42:00,
2013-04-10 18:52:00,41.0,39.0,-100.00,ENE,75,13.0,20.0,95,0.07,,,-99.99,,2013-04-10 23:52:00,
2013-04-10 19:02:00,41.0,39.0,-100.00,ENE,75,13.0,20.0,95,0.07,,,-99.99,,2013-04-11 00:02:00,
2013-04-10 19:12:00,41.0,40.0,-100.00,East,85,12.0,17.0,95,0.00,,,-99.99,,2013-04-11 00:12:00,
2013-04-10 19:22:00,41.0,40.0,-100.00,East,80,11.0,15.0,95,0.00,,,-99.99,,2013-04-11 00:22:00,
2013-04-10 19:32:00,41.0,40.0,-100.00,East,90,11.0,16.0,95,0.04,,,-99.99,,2013-04-11 00:32:00,
2013-04-10 19:42:00,41.0,40.0,-100.00,East,90,11.0,16.0,95,0.04,,,-99.99,,2013-04-11 00:42:00,
2013-04-10 19:52:00,41.0,40.0,-100.00,ENE,65,6.0,13.0,95,0.24,,,-99.99,,2013-04-11 00:52:00,
2013-04-10 20:02:00,41.0,40.0,-100.00,ENE,65,6.0,13.0,95,0.24,,,-99.99,,2013-04-11 01:02:00,
2013-04-10 20:12:00,41.0,40.0,-100.00,ENE,70,7.0,14.0,95,0.21,,,-99.99,,2013-04-11 01:12:00,
2013-04-10 20:22:00,41.0,40.0,-100.00,NE,45,7.0,11.0,95,0.24,,,-99.99,,2013-04-11 01:22:00,
2013-04-10 20:32:00,41.0,40.0,-100.00,East,95,8.0,10.0,95,0.28,,,-99.99,,2013-04-11 01:32:00,
2013-04-10 20:42:00,41.0,40.0,-100.00,East,95,8.0,10.0,95,0.28,,,-99.99,,2013-04-11 01:42:00,
2013-04-10 20:52:00,41.0,40.0,-100.00,East,100,7.0,14.0,95,0.18,,,-99.99,,2013-04-11 01:52:00,
2013-04-10 21:03:00,41.0,40.0,-100.00,East,100,7.0,14.0,95,0.18,,,-99.99,,2013-04-11 02:03:00,
2013-04-10 21:12:00,41.0,40.0,-100.00,East,90,11.0,16.0,95,0.14,,,-99.99,,2013-04-11 02:12:00,
2013-04-10 21:22:00,41.0,40.0,-100.00,East,90,17.0,24.0,95,0.18,,,-99.99,,2013-04-11 02:22:00,
2013-04-10 21:32:00,41.0,40.0,-100.00,East,100,14.0,21.0,95,0.04,,,-99.99,,2013-04-11 02:32:00,
2013-04-10 21:42:00,41.0,40.0,-100.00,East,100,14.0,21.0,95,0.04,,,-99.99,,2013-04-11 02:42:00,
2013-04-10 21:52:00,42.0,40.0,-100.00,ESE,105,15.0,21.0,95,0.00,,,-99.99,,2013-04-11 02:52:00,
2013-04-10 22:02:00,42.0,40.0,-100.00,ESE,105,15.0,21.0,95,0.00,,,-99.99,,2013-04-11 03:02:00,
2013-04-10 22:12:00,42.0,40.0,-100.00,ESE,115,13.0,22.0,95,0.00,,,-99.99,,2013-04-11 03:12:00,
2013-04-10 22:22:00,42.0,40.0,-100.00,East,100,17.0,27.0,95,0.00,,,-99.99,,2013-04-11 03:22:00,
2013-04-10 22:33:00,41.0,40.0,-100.00,ESE,115,16.0,23.0,95,0.00,,,-99.99,,2013-04-11 03:33:00,
2013-04-10 22:43:00,41.0,40.0,-100.00,ESE,115,16.0,23.0,95,0.00,,,-99.99,,2013-04-11 03:43:00,
2013-04-10 22:53:00,42.0,40.0,-100.00,ESE,110,7.0,17.0,95,0.00,,,-99.99,,2013-04-11 03:53:00,
2013-04-10 23:03:00,42.0,40.0,-100.00,ESE,110,7.0,17.0,95,0.00,,,-99.99,,2013-04-11 04:03:00,
2013-04-10 23:12:00,42.0,40.0,-100.00,ENE,75,3.0,14.0,95,0.00,,,-99.99,,2013-04-11 04:12:00,
2013-04-10 23:22:00,42.0,40.0,-100.00,East,85,5.0,7.0,95,0.00,,,-99.99,,2013-04-11 04:22:00,
2013-04-10 23:33:00,42.0,41.0,-100.00,East,100,6.0,8.0,95,0.00,,,-99.99,,2013-04-11 04:33:00,
2013-04-10 23:42:00,41.0,40.0,-100.00,East,90,4.0,10.0,95,0.08,,,-99.99,,2013-04-11 04:42:00,
2013-04-10 23:52:00,41.0,39.0,-100.00,ESE,120,8.0,11.0,95,0.07,,,-99.99,,2013-04-11 04:52:00,